Total_Precipitation_Accumulation
1.87 1.92 2.33 2.29 1.91 1.85 1.92 1.92 1.96 1.89 1.92 2.05 2.06 1.94 1.83 1.81 1.70 1.67 1.69 1.74 1.75 1.78 1.93 2.03 1.99 1.94 1.92 1.77 1.61 1.53 1.55 1.50 1.70 1.81 1.95 1.98 1.90 1.95 2.11 2.13 2.17 1.47 1.29
1.55 1.52 1.90 1.97 1.76 1.82 1.80 1.84 1.93 1.87 1.88 1.90 1.90 1.84 1.72 1.66 1.70 1.64 1.65 1.72 1.77 1.83 1.96 1.97 1.85 1.76 1.64 1.46 1.36 1.36 1.47 1.58 1.83 2.04 2.23 2.21 2.14 2.17 2.23 2.17 2.20 1.40 1.33
1.17 1.16 1.38 1.61 1.49 1.49 1.48 1.53 1.67 1.69 1.69 1.73 1.73 1.71 1.76 1.74 1.73 1.69 1.68 1.77 1.81 1.79 1.86 1.86 1.72 1.57 1.40 1.31 1.29 1.37 1.46 1.82 2.25 2.48 2.83 2.49 1.89 2.23 2.29 2.08 1.78 1.30 1.33
0.88 0.95 1.04 1.35 1.39 1.34 1.35 1.42 1.56 1.57 1.54 1.55 1.58 1.63 1.70 1.79 1.81 1.84 1.83 1.84 1.78 1.76 1.96 1.81 1.62 1.36 1.22 1.19 1.28 1.40 1.52 1.83 2.23 2.79 3.20 2.40 1.57 1.75 1.83 1.62 1.49 1.32 1.28
0.66 0.82 1.11 1.31 1.38 1.32 1.24 1.31 1.41 1.39 1.42 1.46 1.44 1.49 1.59 1.72 1.91 1.95 1.87 1.78 1.70 1.75 1.89 1.74 1.49 1.23 1.08 1.07 1.25 1.38 1.54 1.89 2.26 2.50 2.34 2.31 1.99 1.74 1.52 1.39 1.38 1.31 1.15
0.58 0.75 1.07 1.26 1.26 1.15 1.11 1.21 1.30 1.34 1.40 1.38 1.31 1.43 1.54 1.60 1.70 1.75 1.71 1.61 1.57 1.63 1.67 1.80 1.46 1.22 1.11 1.13 1.28 1.40 1.60 1.99 2.15 1.77 1.65 1.90 1.68 1.66 1.56 1.55 1.53 1.44 1.19
0.60 0.74 0.96 1.18 1.19 1.19 1.21 1.18 1.20 1.33 1.32 1.25 1.26 1.37 1.50 1.52 1.63 1.63 1.53 1.39 1.39 1.52 1.55 1.65 1.51 1.28 1.14 1.13 1.22 1.36 1.67 1.98 1.81 1.44 1.52 1.84 1.48 1.38 1.58 1.75 1.90 1.75 1.42
0.58 0.67 0.82 1.05 1.13 1.19 1.20 1.16 1.16 1.15 1.17 1.22 1.28 1.34 1.33 1.41 1.53 1.49 1.43 1.36 1.28 1.41 1.42 1.38 1.53 1.37 1.21 1.14 1.16 1.23 1.48 1.70 1.45 1.27 1.34 1.52 1.19 1.33 1.65 1.90 2.18 2.03 1.72
0.61 0.68 0.83 1.02 1.12 1.14 1.16 1.13 1.18 1.24 1.18 1.21 1.26 1.34 1.40 1.39 1.33 1.28 1.35 1.38 1.27 1.28 1.27 1.23 1.40 1.49 1.32 1.17 1.13 1.21 1.43 1.74 1.58 1.40 1.23 1.23 1.14 1.43 1.84 2.02 2.11 2.06 1.86
0.99 0.94 0.85 0.85 0.99 1.06 1.04 1.16 1.26 1.28 1.22 1.21 1.27 1.38 1.47 1.38 1.30 1.21 1.19 1.30 1.28 1.21 1.16 1.14 1.30 1.45 1.30 1.25 1.24 1.40 1.60 1.69 1.60 1.51 1.38 1.15 1.24 1.56 1.88 1.99 2.08 2.02 1.91
1.46 1.41 1.06 0.94 0.99 1.09 1.02 1.05 1.29 1.38 1.34 1.44 1.55 1.60 1.74 1.78 1.55 1.52 1.42 1.49 1.41 1.31 1.32 1.35 1.38 1.57 1.40 1.20 1.29 1.52 1.56 1.64 1.93 1.93 1.45 1.18 1.39 1.82 2.06 2.17 2.16 2.08 2.01
1.62 1.61 1.33 1.29 1.14 1.03 0.93 1.15 1.48 1.49 1.59 1.74 1.87 1.78 2.08 2.30 2.09 1.56 1.76 2.03 1.94 1.88 1.79 1.80 1.75 1.63 1.60 1.47 1.83 2.11 1.72 1.95 2.17 1.97 1.56 1.47 1.87 2.34 2.69 2.59 2.29 2.05 1.93
1.75 1.69 1.51 1.48 1.41 1.21 1.31 1.27 1.48 1.78 2.00 1.89 1.74 1.78 2.20 2.10 1.81 1.74 1.89 2.05 2.22 2.11 2.04 2.13 2.19 2.00 2.14 2.52 2.67 2.45 1.94 2.06 2.16 2.11 1.89 1.94 2.45 3.08 3.41 3.10 2.61 2.23 1.99
2.04 1.96 1.80 1.63 1.52 1.47 1.45 1.43 1.55 1.67 1.89 1.94 1.99 1.90 2.12 2.51 2.38 2.30 2.43 2.37 2.43 2.58 2.89 2.74 2.81 2.62 2.53 2.58 2.69 2.42 2.17 2.26 2.29 2.68 2.85 2.73 2.94 3.31 3.71 3.52 3.05 2.65 2.45
2.57 2.52 2.30 1.94 1.89 1.85 1.96 2.06 1.80 1.83 1.93 2.15 2.35 2.31 2.29 2.62 2.62 2.63 2.67 2.69 2.52 2.61 2.79 3.05 2.91 2.99 3.06 2.84 2.54 2.40 2.52 2.61 2.70 2.79 2.90 3.07 2.97 3.03 3.60 3.80 3.44 3.03 2.85
3.22 3.28 3.03 2.63 2.57 2.53 2.41 2.40 2.31 2.10 2.25 2.32 2.47 2.44 2.50 2.76 2.94 2.90 2.71 2.75 2.61 2.57 2.69 2.95 2.99 3.35 3.37 3.32 2.85 2.62 2.66 2.70 2.74 2.88 2.85 3.15 3.08 2.92 3.28 3.66 3.70 3.46 3.23
3.46 3.67 3.63 3.43 3.41 3.36 3.15 2.86 2.62 2.49 2.45 2.69 2.81 2.74 2.78 2.82 3.02 2.97 2.90 2.74 2.69 2.74 2.95 3.02 3.04 3.31 3.35 3.31 3.19 2.94 2.79 2.55 2.43 2.55 2.60 2.77 2.77 2.76 2.98 3.34 3.60 3.65 3.61
3.69 3.92 4.15 4.05 4.05 3.91 3.74 3.47 3.15 2.93 2.88 2.87 2.82 2.86 2.78 2.89 2.94 3.07 2.89 2.66 2.74 2.70 2.88 3.21 3.34 3.52 3.73 3.72 3.45 3.13 2.90 2.77 2.53 2.47 2.36 2.37 2.64 2.34 2.62 3.05 3.29 3.45 3.86
4.02 4.41 4.81 4.88 4.80 4.47 4.12 3.94 3.79 3.54 3.31 3.06 3.02 2.95 2.85 2.82 2.78 2.98 2.85 2.78 2.80 2.97 3.00 2.79 3.42 3.77 3.92 3.89 3.23 3.08 2.72 2.59 2.43 2.25 2.31 2.17 2.36 2.45 2.54 2.58 2.73 2.96 3.71
4.51 5.13 5.25 5.26 5.51 5.24 4.90 4.69 4.47 4.03 3.63 3.31 3.18 3.06 2.81 2.75 2.68 2.98 2.72 2.73 2.86 3.16 3.25 3.32 3.76 3.85 3.72 3.91 3.23 2.85 2.45 2.10 2.04 2.05 1.92 1.97 2.03 1.99 2.21 2.66 3.01 2.73 3.22
4.35 4.96 5.62 5.80 5.66 5.44 5.13 4.65 4.29 3.89 3.63 3.34 3.04 2.82 2.76 2.72 2.81 3.26 2.91 3.18 3.09 3.15 3.19 3.36 3.65 3.64 3.43 3.75 3.76 3.06 2.25 1.77 1.75 1.65 1.64 1.77 1.74 1.73 2.00 2.57 2.96 3.01 2.79
3.78 4.24 4.71 5.01 4.69 4.36 4.15 4.04 3.90 3.81 3.41 3.26 3.19 3.23 2.92 2.93 2.93 3.00 3.24 3.15 3.17 3.27 3.07 3.17 3.49 3.34 2.96 3.37 3.71 3.68 2.85 2.29 1.80 1.29 1.45 1.54 1.64 1.80 1.79 1.87 2.33 2.88 2.79
3.23 3.39 3.55 3.75 3.82 3.84 3.88 3.95 4.04 4.18 3.87 3.74 3.69 3.58 3.11 2.99 2.97 3.04 2.99 2.95 3.05 2.99 2.96 2.97 3.17 3.28 3.10 3.10 3.49 3.85 3.23 2.54 2.00 1.50 1.41 1.37 1.64 1.97 1.95 1.93 2.11 2.48 2.65
2.53 2.80 3.28 3.49 3.61 3.79 4.04 4.03 4.05 4.02 3.95 3.93 4.03 3.97 3.77 3.46 3.23 3.01 2.83 2.78 2.77 2.69 2.78 2.55 2.85 3.08 3.21 2.92 3.05 3.10 2.96 2.87 2.70 2.02 1.59 1.45 1.70 1.92 2.04 2.01 2.09 2.30 2.47
2.12 2.42 2.98 3.52 3.78 3.93 4.12 4.22 4.46 4.29 4.14 4.01 4.06 4.12 3.88 3.61 3.27 2.91 2.85 2.83 2.78 2.66 2.55 2.48 2.70 2.66 2.78 2.79 2.82 2.85 2.91 2.88 2.68 2.42 2.03 1.85 1.77 1.54 1.56 1.72 1.96 2.21 2.33
2.27 2.54 2.95 3.42 3.76 3.92 4.01 4.06 4.14 4.14 4.11 3.89 3.77 3.49 3.10 2.97 2.85 2.63 2.57 2.60 2.52 2.53 2.51 2.48 2.51 2.48 2.56 2.66 2.67 2.66 2.79 2.80 2.73 2.74 2.43 2.18 1.96 1.66 1.57 1.64 1.80 1.97 2.07